EW4405 Weather Reports


time (UTC)temp
C
wind
direction
speed
KPH
gust
KPH
rain 1hr
cm
rain 24hr
cm
rain mn
cm
humidity
%
barometer
mb
20260504192042 27 175 4.8 12.9 0.00 0.00 0.00 58 1013.1
20260504191310 27 168 4.8 12.9 0.00 0.00 0.00 56 1013.1
20260504191042 27 186 4.8 14.5 0.00 0.00 0.00 56 1013.2
20260504190311 27 173 6.4 14.5 0.00 0.00 0.00 57 1013.2
20260504185811 28 182 6.4 14.5 0.00 0.00 0.00 55 1013.2
20260504185310 28 173 6.4 12.9 0.00 0.00 0.00 55 1013.4
20260504184811 27 219 6.4 14.5 0.00 0.00 0.00 55 1013.3
20260504184312 27 187 8.0 14.5 0.00 0.00 0.00 55 1013.4
20260504183811 27 204 8.0 16.1 0.00 0.00 0.00 55 1013.5
20260504183301 27 202 8.0 16.1 0.00 0.00 0.00 57 1013.4
20260504182802 27 220 6.4 16.1 0.00 0.00 0.00 55 1013.4
20260504182304 27 184 6.4 16.1 0.00 0.00 0.00 54 1013.6
20260504181803 27 174 6.4 14.5 0.00 0.00 0.00 55 1013.6
20260504181303 27 143 6.4 14.5 0.00 0.00 0.00 56 1013.6
20260504180803 27 205 6.4 16.1 0.00 0.00 0.00 55 1013.7
20260504180303 27 157 4.8 16.1 0.00 0.00 0.00 55 1014.0
20260504175802 27 233 4.8 11.3 0.00 0.00 0.00 57 1014.0
20260504175304 27 195 4.8 9.7 0.00 0.00 0.00 56 1014.0
20260504175010 26 190 3.2 9.7 0.00 0.00 0.00 58 1014.1
20260504174249 26 185 6.4 22.5 0.00 0.00 0.00 57 1014.3
20260504174010 26 174 6.4 22.5 0.00 0.00 0.00 56 1014.3
20260504173451 26 184 6.4 17.7 0.00 0.00 0.00 57 1014.1
20260504172724 26 205 8.0 17.7 0.00 0.00 0.00 57 1014.4
20260504172219 26 194 6.4 17.7 0.00 0.00 0.00 57 1014.5
20260504171707 26 207 6.4 12.9 0.00 0.00 0.00 58 1014.7
20260504171201 26 195 8.0 14.5 0.00 0.00 0.00 58 1014.5
20260504170919 26 0 6.4 16.1 0.00 0.00 0.00 57 1014.8
20260504170145 26 226 6.4 16.1 0.00 0.00 0.00 57 1014.7
20260504170123 26 0 6.4 17.7 0.00 0.00 0.00 58 1014.9
20260504151013 23 181 4.8 12.9 0.00 0.00 0.00 67 1015.4
20260504150511 23 200 6.4 20.9 0.00 0.00 0.00 66 1015.4
20260504141000 20 0 0.0 4.8 0.00 0.00 0.00 71 1015.6
20260504140500 20 0 1.6 8.0 0.00 0.00 0.00 72 1015.5
20260504130443 16 0 0.0 1.6 0.00 0.00 0.00 80 1015.4
20260504110323 14 0 0.0 0.0 0.00 0.00 0.00 81 1015.2
20260504100311 14 0 0.0 0.0 0.00 0.00 0.00 80 1015.6
20260504081802 15 0 0.0 0.0 0.00 0.00 0.00 75 1015.9
20260504081301 15 0 0.0 0.0 0.00 0.00 0.00 75 1016.1
20260504080756 15 0 0.0 0.0 0.00 0.00 0.00 75 1016.2
20260504080256 15 0 0.0 0.0 0.00 0.00 0.00 75 1016.4
20260504050718 16 0 0.0 3.2 0.00 0.00 0.00 73 1018.1
20260504050216 16 0 0.0 3.2 0.00 0.00 0.00 73 1018.0
20260504045941 16 0 0.0 1.6 0.00 0.00 0.00 73 1018.0
20260504045218 16 0 0.0 0.0 0.00 0.00 0.00 71 1018.0
20260504044941 16 0 0.0 0.0 0.00 0.00 0.00 71 1018.0
20260504044218 16 0 0.0 0.0 0.00 0.00 0.00 70 1018.1
20260504043713 16 0 0.0 0.0 0.00 0.00 0.00 70 1018.1
20260504043212 17 0 0.0 0.0 0.00 0.00 0.00 70 1018.1
20260504042934 17 0 0.0 0.0 0.00 0.00 0.00 69 1018.2
20260504042211 17 0 0.0 0.0 0.00 0.00 0.00 69 1018.2
20260504041711 17 0 0.0 0.0 0.00 0.00 0.00 69 1018.2
20260504041213 17 0 0.0 1.6 0.00 0.00 0.00 68 1018.2
20260504040710 17 0 0.0 3.2 0.00 0.00 0.00 67 1018.1
20260504040212 17 0 0.0 3.2 0.00 0.00 0.00 67 1018.0
20260504035704 17 0 0.0 3.2 0.00 0.00 0.00 67 1017.9
20260504035203 18 0 0.0 1.6 0.00 0.00 0.00 66 1018.0
20260504034703 18 0 0.0 1.6 0.00 0.00 0.00 66 1018.0
20260504034204 18 0 0.0 1.6 0.00 0.00 0.00 66 1018.2
20260504033703 18 0 0.0 1.6 0.00 0.00 0.00 65 1018.3
20260504033159 18 0 0.0 1.6 0.00 0.00 0.00 64 1018.2
20260504032658 18 0 0.0 1.6 0.00 0.00 0.00 64 1018.2
20260504032154 18 0 0.0 4.8 0.00 0.00 0.00 63 1018.1
20260504031654 18 0 0.0 4.8 0.00 0.00 0.00 63 1018.0
20260504031153 19 0 0.0 4.8 0.00 0.00 0.00 63 1018.0
20260504030650 19 0 1.6 3.2 0.00 0.00 0.00 62 1018.1
20260504030412 19 0 1.6 4.8 0.00 0.00 0.00 62 1018.1
20260504025912 19 0 1.6 4.8 0.00 0.00 0.00 62 1018.0
20260504025142 19 0 1.6 8.0 0.00 0.00 0.00 61 1018.0
20260504024635 19 0 1.6 8.0 0.00 0.00 0.00 61 1018.0
20260504024349 20 0 1.6 6.4 0.00 0.00 0.00 60 1018.0
20260504023620 20 0 1.6 6.4 0.00 0.00 0.00 60 1018.0
20260504023113 20 0 1.6 8.0 0.00 0.00 0.00 60 1017.9
20260504022603 20 0 1.6 8.0 0.00 0.00 0.00 59 1017.9
20260504022059 20 0 1.6 4.8 0.00 0.00 0.00 59 1017.8
20260504021551 20 0 0.0 4.8 0.00 0.00 0.00 58 1017.8
20260504021042 20 0 0.0 4.8 0.00 0.00 0.00 57 1017.7
20260504020535 20 0 0.0 4.8 0.00 0.00 0.00 57 1017.7
20260504020028 20 0 0.0 3.2 0.00 0.00 0.00 56 1017.7
20260504015519 20 0 0.0 4.8 0.00 0.00 0.00 55 1017.6
20260504015234 21 0 0.0 3.2 0.00 0.00 0.00 55 1017.7
20260504014508 21 0 1.6 6.4 0.00 0.00 0.00 54 1017.7
20260504013959 21 0 1.6 6.4 0.00 0.00 0.00 54 1017.7
20260504013451 21 0 1.6 9.7 0.00 0.00 0.00 53 1017.7
20260504012945 21 0 3.2 9.7 0.00 0.00 0.00 53 1017.7
20260504012435 21 0 1.6 8.0 0.00 0.00 0.00 52 1017.7
20260504011930 21 0 3.2 8.0 0.00 0.00 0.00 52 1017.7
20260504011423 22 196 1.6 6.4 0.00 0.00 0.00 51 1017.6
20260504010914 22 188 1.6 9.7 0.00 0.00 0.00 51 1017.6
20260504010631 22 187 1.6 9.7 0.00 0.00 0.00 49 1017.5
20260504005901 22 185 1.6 8.0 0.00 0.00 0.00 49 1017.5
20260504005351 22 186 1.6 9.7 0.00 0.00 0.00 49 1017.4
20260504004845 22 178 1.6 9.7 0.00 0.00 0.00 48 1017.6
20260504004340 22 186 1.6 6.4 0.00 0.00 0.00 48 1017.6
20260504003830 23 178 3.2 8.0 0.00 0.00 0.00 47 1017.6
20260504003323 23 181 3.2 9.7 0.00 0.00 0.00 47 1017.4
20260504002817 23 182 3.2 12.9 0.00 0.00 0.00 46 1017.6
20260504002308 23 210 4.8 12.9 0.00 0.00 0.00 46 1017.5
20260504002029 23 168 3.2 11.3 0.00 0.00 0.00 45 1017.5
20260504001304 24 166 3.2 11.3 0.00 0.00 0.00 45 1017.4
20260504000803 24 186 3.2 11.3 0.00 0.00 0.00 44 1017.4
20260504000523 25 174 3.2 12.9 0.00 0.00 0.00 44 1017.5
20260503235800 25 194 3.2 12.9 0.00 0.00 0.00 43 1017.5
20260503235528 25 191 4.8 12.9 0.00 0.00 0.00 43 1017.5
20260503234800 25 207 4.8 12.9 0.00 0.00 0.00 41 1017.6
20260503234302 26 167 4.8 12.9 0.00 0.00 0.00 41 1017.5
20260503233800 26 182 4.8 16.1 0.00 0.00 0.00 41 1017.5
20260503233301 26 159 3.2 16.1 0.00 0.00 0.00 40 1017.7
20260503232759 26 182 3.2 11.3 0.00 0.00 0.00 40 1017.8
20260503232259 26 174 3.2 11.3 0.00 0.00 0.00 40 1017.8
20260503231758 26 180 3.2 11.3 0.00 0.00 0.00 39 1017.8
20260503231259 26 188 3.2 11.3 0.00 0.00 0.00 39 1017.7
20260503231020 26 180 3.2 11.3 0.00 0.00 0.00 39 1017.8
20260503230514 26 200 4.8 11.3 0.00 0.00 0.00 40 1017.8
20260503225747 26 161 3.2 11.3 0.00 0.00 0.00 39 1017.7
20260503225237 27 180 3.2 11.3 0.00 0.00 0.00 40 1017.8
20260503224731 27 163 3.2 14.5 0.00 0.00 0.00 40 1017.9
20260503224713 27 169 4.8 14.5 0.00 0.00 0.00 39 1018.0
20260503223716 27 178 4.8 11.3 0.00 0.00 0.00 38 1018.0
20260503223210 27 207 3.2 11.3 0.00 0.00 0.00 40 1018.0
20260503222703 27 214 4.8 11.3 0.00 0.00 0.00 39 1018.2
20260503222155 27 228 4.8 12.9 0.00 0.00 0.00 38 1018.2
20260503221912 27 229 4.8 12.9 0.00 0.00 0.00 38 1018.3
20260503221155 27 185 4.8 20.9 0.00 0.00 0.00 38 1018.4
20260503220654 27 174 4.8 20.9 0.00 0.00 0.00 37 1018.3
20260503220154 27 194 1.6 11.3 0.00 0.00 0.00 39 1018.3
20260503215653 27 178 0.0 4.8 0.00 0.00 0.00 37 1018.2
20260503215153 27 182 0.0 8.0 0.00 0.00 0.00 33 1018.2
20260503214654 27 182 1.6 8.0 0.00 0.00 0.00 34 1018.3
20260503214417 27 152 1.6 8.0 0.00 0.00 0.00 32 1018.4
20260503213651 28 212 1.6 8.0 0.00 0.00 0.00 35 1018.6
20260503213153 27 178 3.2 11.3 0.00 0.00 0.00 35 1018.7
20260503212650 27 175 3.2 11.3 0.00 0.00 0.00 32 1018.7
20260503212149 27 196 3.2 11.3 0.00 0.00 0.00 35 1018.8
20260503211648 27 184 1.6 9.7 0.00 0.00 0.00 33 1018.9
20260503211148 27 191 1.6 9.7 0.00 0.00 0.00 31 1018.9
20260503210644 27 194 1.6 11.3 0.00 0.00 0.00 33 1018.9
20260503210144 27 186 1.6 11.3 0.00 0.00 0.00 33 1019.1
20260503205645 27 140 1.6 4.8 0.00 0.00 0.00 31 1019.1
20260503205146 27 197 3.2 12.9 0.00 0.00 0.00 32 1019.1
20260503204641 27 196 4.8 12.9 0.00 0.00 0.00 31 1019.2
20260503204140 27 184 4.8 12.9 0.00 0.00 0.00 30 1019.3
20260503203641 27 208 1.6 11.3 0.00 0.00 0.00 32 1019.3
20260503203141 27 58 1.6 6.4 0.00 0.00 0.00 31 1019.3
20260503202638 27 32 1.6 4.8 0.00 0.00 0.00 34 1019.5
20260503202357 28 175 1.6 8.0 0.00 0.00 0.00 33 1019.7
20260503202236 27 155 1.6 6.4 0.00 0.00 0.00 30 1019.7
20260503201136 27 173 1.6 8.0 0.00 0.00 0.00 33 1019.8
20260503200858 27 186 1.6 9.7 0.00 0.00 0.00 31 1019.9
20260503200139 27 192 1.6 9.7 0.00 0.00 0.00 33 1020.0
20260503195635 27 189 1.6 8.0 0.00 0.00 0.00 32 1020.0
20260503195132 27 124 1.6 8.0 0.00 0.00 0.00 30 1020.0
20260503194858 27 111 1.6 8.0 0.00 0.00 0.00 32 1020.1
20260503194132 27 171 3.2 12.9 0.00 0.00 0.00 31 1020.1
20260503193632 27 167 3.2 12.9 0.00 0.00 0.00 36 1020.2
20260503193400 27 65 3.2 12.9 0.00 0.00 0.00 33 1020.2
20260503192633 27 181 3.2 12.9 0.00 0.00 0.00 33 1020.4